Time,TemperatureF,DewpointF,PressureIn,WindDirection,WindDirectionDegrees,WindSpeedMPH,WindSpeedGustMPH,Humidity,HourlyPrecipIn,Conditions,Clouds,dailyrainin,SolarRadiationWatts/m^2,SoftwareType,DateUTC
2013-06-29 00:01:00,70.0,70.0,-100.00,South,182,1.0,3.0,100,0.00,,,0.21,0.000000,,2013-06-29 04:01:00,
2013-06-29 00:32:00,69.0,69.0,-100.00,SSW,205,0.0,2.0,100,0.00,,,0.21,0.000000,,2013-06-29 04:32:00,
2013-06-29 00:41:00,69.0,69.0,-100.00,SSW,205,0.0,2.0,100,0.00,,,0.21,0.000000,,2013-06-29 04:41:00,
2013-06-29 00:51:00,69.0,69.0,-100.00,SSW,205,0.0,2.0,100,0.00,,,0.21,0.000000,,2013-06-29 04:51:00,
2013-06-29 01:01:00,69.0,69.0,-100.00,SSW,205,0.0,2.0,100,0.00,,,0.21,0.000000,,2013-06-29 05:01:00,
2013-06-29 01:31:00,68.0,68.0,-100.00,SSW,194,0.0,0.0,100,0.00,,,0.21,0.000000,,2013-06-29 05:31:00,
2013-06-29 01:42:00,68.0,68.0,-100.00,SSW,194,0.0,0.0,100,0.00,,,0.21,0.000000,,2013-06-29 05:42:00,
2013-06-29 01:52:00,68.0,68.0,-100.00,SSW,194,0.0,0.0,100,0.00,,,0.21,0.000000,,2013-06-29 05:52:00,
2013-06-29 02:01:00,68.0,68.0,-100.00,SSW,194,0.0,0.0,100,0.00,,,0.21,0.000000,,2013-06-29 06:01:00,
2013-06-29 02:34:00,69.0,69.0,-100.00,South,170,0.0,4.0,100,0.00,,,0.21,0.000000,,2013-06-29 06:34:00,
2013-06-29 02:43:00,69.0,69.0,-100.00,South,170,0.0,4.0,100,0.00,,,0.21,0.000000,,2013-06-29 06:43:00,
2013-06-29 02:53:00,69.0,69.0,-100.00,South,170,0.0,4.0,100,0.00,,,0.21,0.000000,,2013-06-29 06:53:00,
2013-06-29 03:02:00,69.0,69.0,-100.00,South,170,0.0,4.0,100,0.00,,,0.21,0.000000,,2013-06-29 07:02:00,
2013-06-29 03:33:00,70.0,70.0,-100.00,SSW,210,1.0,5.0,100,0.00,,,0.21,0.000000,,2013-06-29 07:33:00,
2013-06-29 03:43:00,70.0,70.0,-100.00,SSW,210,1.0,5.0,100,0.00,,,0.21,0.000000,,2013-06-29 07:43:00,
2013-06-29 03:53:00,70.0,70.0,-100.00,SSW,210,1.0,5.0,100,0.00,,,0.21,0.000000,,2013-06-29 07:53:00,
2013-06-29 04:01:00,70.0,70.0,-100.00,SSW,210,1.0,5.0,100,0.00,,,0.21,0.000000,,2013-06-29 08:01:00,
2013-06-29 04:33:00,70.0,69.0,-100.00,South,173,1.0,5.0,96,0.00,,,0.21,0.000000,,2013-06-29 08:33:00,
2013-06-29 04:43:00,70.0,69.0,-100.00,South,173,1.0,5.0,96,0.00,,,0.21,0.000000,,2013-06-29 08:43:00,
2013-06-29 04:52:00,70.0,69.0,-100.00,South,173,1.0,5.0,96,0.00,,,0.21,0.000000,,2013-06-29 08:52:00,
2013-06-29 05:02:00,70.0,69.0,-100.00,South,173,1.0,5.0,96,0.00,,,0.21,0.000000,,2013-06-29 09:02:00,
2013-06-29 05:33:00,69.0,66.0,-100.00,NNW,335,1.0,6.0,90,0.00,,,0.21,0.000000,,2013-06-29 09:33:00,
2013-06-29 05:42:00,69.0,66.0,-100.00,NNW,335,1.0,6.0,90,0.00,,,0.21,0.000000,,2013-06-29 09:42:00,
2013-06-29 05:53:00,69.0,66.0,-100.00,NNW,335,1.0,6.0,90,0.00,,,0.21,0.000000,,2013-06-29 09:53:00,
2013-06-29 06:01:00,69.0,66.0,-100.00,NNW,335,1.0,6.0,90,0.00,,,0.21,0.000000,,2013-06-29 10:01:00,
2013-06-29 06:33:00,68.0,66.0,-100.00,NW,311,0.0,3.0,94,0.00,,,0.21,0.000000,,2013-06-29 10:33:00,
2013-06-29 06:43:00,68.0,66.0,-100.00,NW,311,0.0,3.0,94,0.00,,,0.21,0.000000,,2013-06-29 10:43:00,
2013-06-29 06:53:00,68.0,66.0,-100.00,NW,311,0.0,3.0,94,0.00,,,0.21,0.000000,,2013-06-29 10:53:00,
2013-06-29 07:02:00,68.0,66.0,-100.00,NW,311,0.0,3.0,94,0.00,,,0.21,0.000000,,2013-06-29 11:02:00,
2013-06-29 07:33:00,67.0,65.0,-100.00,NW,326,0.0,5.0,93,0.00,,,0.21,17.000000,,2013-06-29 11:33:00,
2013-06-29 07:43:00,67.0,65.0,-100.00,NW,326,0.0,5.0,93,0.00,,,0.21,17.000000,,2013-06-29 11:43:00,
2013-06-29 07:53:00,67.0,65.0,-100.00,NW,326,0.0,5.0,93,0.00,,,0.21,17.000000,,2013-06-29 11:53:00,
2013-06-29 08:02:00,67.0,65.0,-100.00,NW,326,0.0,5.0,93,0.00,,,0.21,17.000000,,2013-06-29 12:02:00,
2013-06-29 08:43:00,72.0,66.0,-100.00,WNW,290,1.0,2.0,81,0.00,,,0.21,149.000000,,2013-06-29 12:43:00,
2013-06-29 08:53:00,72.0,66.0,-100.00,WNW,290,1.0,2.0,81,0.00,,,0.21,149.000000,,2013-06-29 12:53:00,
2013-06-29 09:02:00,72.0,66.0,-100.00,WNW,290,1.0,2.0,81,0.00,,,0.21,149.000000,,2013-06-29 13:02:00,
2013-06-29 09:43:00,75.0,67.0,-100.00,WSW,258,4.0,7.0,76,0.00,,,0.21,353.000000,,2013-06-29 13:43:00,
2013-06-29 09:53:00,75.0,67.0,-100.00,WSW,258,4.0,7.0,76,0.00,,,0.21,353.000000,,2013-06-29 13:53:00,
2013-06-29 10:02:00,75.0,67.0,-100.00,WSW,258,4.0,7.0,76,0.00,,,0.21,353.000000,,2013-06-29 14:02:00,
2013-06-29 10:34:00,76.0,68.0,-100.00,West,259,2.0,8.0,77,0.00,,,0.21,418.000000,,2013-06-29 14:34:00,
2013-06-29 10:45:00,76.0,68.0,-100.00,West,259,2.0,8.0,77,0.00,,,0.21,418.000000,,2013-06-29 14:45:00,
2013-06-29 10:53:00,76.0,68.0,-100.00,West,259,2.0,8.0,77,0.00,,,0.21,418.000000,,2013-06-29 14:53:00,
2013-06-29 11:02:00,76.0,68.0,-100.00,West,259,2.0,8.0,77,0.00,,,0.21,418.000000,,2013-06-29 15:02:00,
2013-06-29 11:33:00,78.0,66.0,-100.00,WSW,257,3.0,8.0,67,0.00,,,0.21,676.000000,,2013-06-29 15:33:00,
2013-06-29 11:42:00,78.0,66.0,-100.00,WSW,257,3.0,8.0,67,0.00,,,0.21,676.000000,,2013-06-29 15:42:00,
2013-06-29 11:53:00,78.0,66.0,-100.00,WSW,257,3.0,8.0,67,0.00,,,0.21,676.000000,,2013-06-29 15:53:00,
2013-06-29 12:02:00,78.0,66.0,-100.00,WSW,257,3.0,8.0,67,0.00,,,0.21,676.000000,,2013-06-29 16:02:00,
2013-06-29 12:34:00,82.0,66.0,-100.00,WSW,239,2.0,6.0,58,0.00,,,0.21,787.000000,,2013-06-29 16:34:00,
2013-06-29 12:43:00,82.0,66.0,-100.00,WSW,239,2.0,6.0,58,0.00,,,0.21,787.000000,,2013-06-29 16:43:00,
2013-06-29 12:53:00,82.0,66.0,-100.00,WSW,239,2.0,6.0,58,0.00,,,0.21,787.000000,,2013-06-29 16:53:00,
2013-06-29 13:02:00,82.0,66.0,-100.00,WSW,239,2.0,6.0,58,0.00,,,0.21,787.000000,,2013-06-29 17:02:00,
2013-06-29 13:34:00,83.0,62.0,-100.00,West,262,4.0,9.0,50,0.00,,,0.21,842.000000,,2013-06-29 17:34:00,
2013-06-29 13:42:00,83.0,62.0,-100.00,West,262,4.0,9.0,50,0.00,,,0.21,842.000000,,2013-06-29 17:42:00,
2013-06-29 13:53:00,83.0,62.0,-100.00,West,262,4.0,9.0,50,0.00,,,0.21,842.000000,,2013-06-29 17:53:00,
2013-06-29 14:02:00,83.0,62.0,-100.00,West,262,4.0,9.0,50,0.00,,,0.21,842.000000,,2013-06-29 18:02:00,
2013-06-29 14:34:00,84.0,60.0,-100.00,SW,231,3.0,9.0,45,0.00,,,0.21,718.000000,,2013-06-29 18:34:00,
2013-06-29 14:43:00,84.0,60.0,-100.00,SW,231,3.0,9.0,45,0.00,,,0.21,718.000000,,2013-06-29 18:43:00,
2013-06-29 14:53:00,84.0,60.0,-100.00,SW,231,3.0,9.0,45,0.00,,,0.21,718.000000,,2013-06-29 18:53:00,
2013-06-29 15:01:00,84.0,60.0,-100.00,SW,231,3.0,9.0,45,0.00,,,0.21,718.000000,,2013-06-29 19:01:00,
2013-06-29 15:34:00,86.0,63.0,-100.00,SW,222,4.0,12.0,46,0.00,,,0.18,568.000000,,2013-06-29 19:34:00,
2013-06-29 15:43:00,86.0,63.0,-100.00,SW,222,4.0,12.0,46,0.00,,,0.18,568.000000,,2013-06-29 19:43:00,
2013-06-29 15:54:00,86.0,63.0,-100.00,SW,222,4.0,12.0,46,0.00,,,0.18,568.000000,,2013-06-29 19:54:00,
2013-06-29 16:02:00,86.0,63.0,-100.00,SW,222,4.0,12.0,46,0.00,,,0.18,568.000000,,2013-06-29 20:02:00,
2013-06-29 16:33:00,86.0,62.0,-100.00,WSW,238,3.0,9.0,45,0.00,,,-99.99,603.000000,,2013-06-29 20:33:00,
2013-06-29 16:43:00,86.0,62.0,-100.00,WSW,238,3.0,9.0,45,0.00,,,-99.99,603.000000,,2013-06-29 20:43:00,
2013-06-29 16:52:00,86.0,62.0,-100.00,WSW,238,3.0,9.0,45,0.00,,,-99.99,603.000000,,2013-06-29 20:52:00,
2013-06-29 17:02:00,86.0,62.0,-100.00,WSW,238,3.0,9.0,45,0.00,,,-99.99,603.000000,,2013-06-29 21:02:00,
2013-06-29 17:32:00,85.0,60.0,-100.00,West,279,4.0,9.0,43,0.00,,,0.02,613.000000,,2013-06-29 21:32:00,
2013-06-29 17:42:00,85.0,60.0,-100.00,West,279,4.0,9.0,43,0.00,,,0.02,613.000000,,2013-06-29 21:42:00,
2013-06-29 17:52:00,85.0,60.0,-100.00,West,279,4.0,9.0,43,0.00,,,0.02,613.000000,,2013-06-29 21:52:00,
2013-06-29 18:01:00,85.0,60.0,-100.00,West,279,4.0,9.0,43,0.00,,,0.02,613.000000,,2013-06-29 22:01:00,
2013-06-29 18:33:00,85.0,61.0,-100.00,WNW,292,3.0,11.0,45,0.00,,,0.00,491.000000,,2013-06-29 22:33:00,
2013-06-29 18:43:00,85.0,61.0,-100.00,WNW,292,3.0,11.0,45,0.00,,,0.00,491.000000,,2013-06-29 22:43:00,
2013-06-29 18:53:00,85.0,61.0,-100.00,WNW,292,3.0,11.0,45,0.00,,,0.00,491.000000,,2013-06-29 22:53:00,
2013-06-29 19:02:00,85.0,61.0,-100.00,WNW,292,3.0,11.0,45,0.00,,,0.00,491.000000,,2013-06-29 23:02:00,
2013-06-29 19:34:00,83.0,60.0,-100.00,WNW,291,2.0,8.0,46,0.00,,,0.00,307.000000,,2013-06-29 23:34:00,
2013-06-29 19:43:00,83.0,60.0,-100.00,WNW,291,2.0,8.0,46,0.00,,,0.00,307.000000,,2013-06-29 23:43:00,
2013-06-29 19:53:00,83.0,60.0,-100.00,WNW,291,2.0,8.0,46,0.00,,,0.00,307.000000,,2013-06-29 23:53:00,
2013-06-29 20:02:00,83.0,60.0,-100.00,WNW,291,2.0,8.0,46,0.00,,,0.00,307.000000,,2013-06-30 00:02:00,
2013-06-29 20:34:00,77.0,61.0,-100.00,NNW,334,2.0,6.0,58,0.00,,,0.00,54.000000,,2013-06-30 00:34:00,
2013-06-29 20:43:00,77.0,61.0,-100.00,NNW,334,2.0,6.0,58,0.00,,,0.00,54.000000,,2013-06-30 00:43:00,
2013-06-29 20:52:00,77.0,61.0,-100.00,NNW,334,2.0,6.0,58,0.00,,,0.00,54.000000,,2013-06-30 00:52:00,
2013-06-29 21:01:00,77.0,61.0,-100.00,NNW,334,2.0,6.0,58,0.00,,,0.00,54.000000,,2013-06-30 01:01:00,
2013-06-29 21:33:00,74.0,61.0,-100.00,WSW,258,2.0,3.0,65,0.00,,,0.00,11.000000,,2013-06-30 01:33:00,
2013-06-29 21:44:00,74.0,61.0,-100.00,WSW,258,2.0,3.0,65,0.00,,,0.00,11.000000,,2013-06-30 01:44:00,
2013-06-29 21:53:00,74.0,61.0,-100.00,WSW,258,2.0,3.0,65,0.00,,,0.00,11.000000,,2013-06-30 01:53:00,
2013-06-29 22:02:00,74.0,61.0,-100.00,WSW,258,2.0,3.0,65,0.00,,,0.00,11.000000,,2013-06-30 02:02:00,
2013-06-29 22:34:00,71.0,63.0,-100.00,WSW,256,2.0,3.0,77,0.00,,,0.00,0.000000,,2013-06-30 02:34:00,
2013-06-29 22:43:00,71.0,63.0,-100.00,WSW,256,2.0,3.0,77,0.00,,,0.00,0.000000,,2013-06-30 02:43:00,
2013-06-29 22:53:00,71.0,63.0,-100.00,WSW,256,2.0,3.0,77,0.00,,,0.00,0.000000,,2013-06-30 02:53:00,
2013-06-29 23:01:00,71.0,63.0,-100.00,WSW,256,2.0,3.0,77,0.00,,,0.00,0.000000,,2013-06-30 03:01:00,
2013-06-29 23:34:00,69.0,64.0,-100.00,SW,227,0.0,3.0,85,0.00,,,0.00,0.000000,,2013-06-30 03:34:00,
2013-06-29 23:43:00,69.0,64.0,-100.00,SW,227,0.0,3.0,85,0.00,,,0.00,0.000000,,2013-06-30 03:43:00,
2013-06-29 23:53:00,69.0,64.0,-100.00,SW,227,0.0,3.0,85,0.00,,,0.00,0.000000,,2013-06-30 03:53:00,